Home   Weather   Beckum   Past weeks

Flag for Germany Past Weather in Beckum, North Rhine-Westphalia, Germany — Yesterday and Last 2 Weeks

Now
45 °F

Fog.


Feels Like: 38 °F
Forecast: 46 / 50 °F
Wind: 14 mph from Southwest

Location: Dortmund / Wickede

Current Time: Feb 20, 2017 at 9:38:02 am

Latest Report: Feb 20, 2017 at 8:50 am


Visibility: 3 mi

Pressure: 30.04 "Hg

Humidity: 81%

Dew Point: 39 °F

Location of BeckumLocation

Past Weather in Beckum — Graph

°F

Beckum Temperature Yesterday

Maximum temperature yesterday: 45 °F (at 11:50 am)
Minimum temperature yesterday: 36 °F (at 5:20 am)
Average temperature yesterday: 41 °F

High & Low Weather Summary for the Past Weeks

 TemperatureHumidityPressure
High61 °F (Feb 15, 2:50 pm)93% (Feb 6, 5:50 am)30.51 "Hg (Feb 6, 5:50 am)
Low27 °F (Feb 9, 7:20 am)29% (Feb 15, 2:50 pm)29.59 "Hg (Feb 5, 8:20 am)
Average37 °F75%30.21 "Hg
* Reported Feb 5 8:20 am — Feb 20 8:20 am, Beckum, Weather by CustomWeather, © 2017

Note: Actual official high and low records may vary slightly from our data, if they occured in-between our weather recording intervals... More about our weather records

Advertising

Beckum Weather History for the Previous 24 Hours

Scroll right to see more
 ConditionsComfort  
Time TempWeatherWind HumidityBarometerVisibility
8:20 am
Mon, Feb 20
45 °FOvercast.14 mph81%30.04 "Hg4 mi
7:50 am45 °FLow clouds.14 mph81%30.04 "Hg5 mi
7:20 am43 °FLow clouds.15 mph87%30.07 "Hg5 mi
6:50 am43 °FLow clouds.14 mph87%30.04 "Hg4 mi
6:20 am43 °FPassing clouds.14 mph87%30.07 "Hg5 mi
5:50 am43 °FPartly cloudy.13 mph87%30.07 "Hg5 mi
5:20 am43 °FPassing clouds.10 mph87%30.07 "Hg4 mi
9:50 pm
Sun, Feb 19
41 °FFog.7 mph93%30.12 "Hg3 mi
9:20 pm43 °FFog.8 mph87%30.12 "Hg2 mi
8:50 pm43 °FFog.9 mph87%30.12 "Hg3 mi
8:20 pm41 °FFog.8 mph93%30.12 "Hg2 mi
7:50 pm41 °FFog.7 mph93%30.12 "Hg3 mi
7:20 pm41 °FFog.7 mph93%30.12 "Hg2 mi
6:50 pm41 °FFog.8 mph93%30.12 "Hg2 mi
6:20 pm41 °FLight rain. Fog.9 mph93%30.12 "Hg3 mi
5:50 pm41 °FLight rain. Fog.9 mph87%30.09 "Hg3 mi
5:20 pm41 °FLight rain. Fog.8 mph87%30.09 "Hg2 mi
4:50 pm41 °FLight rain. Fog.10 mph87%30.09 "Hg2 mi
4:20 pm41 °FLight rain. Fog.10 mph87%30.09 "Hg3 mi
3:50 pm43 °FLight rain. Fog.10 mph81%30.09 "Hg3 mi
3:20 pm43 °FLight rain. Overcast.10 mph81%30.09 "Hg4 mi
2:50 pm43 °FLight rain. Low clouds.10 mph81%30.09 "Hg4 mi
2:20 pm43 °FLight rain. Partly sunny.12 mph81%30.09 "Hg6 mi
1:50 pm43 °FLight rain. Partly sunny.12 mph81%30.09 "HgN/A
1:20 pm43 °FPartly sunny.9 mph76%30.12 "HgN/A
12:50 pm45 °FBroken clouds.12 mph66%30.12 "HgN/A
12:20 pm45 °FSunny.13 mph71%30.12 "Hg10 mi
11:50 am45 °FSunny.12 mph66%30.12 "Hg10 mi
11:20 am43 °FScattered showers. Clear.14 mph71%30.12 "HgN/A
10:50 am43 °FSunny.12 mph71%30.15 "Hg10 mi
10:20 am41 °FSunny.14 mph70%30.15 "Hg10 mi
9:50 am43 °FSunny.16 mph66%30.15 "Hg10 mi
9:20 am39 °FSunny.15 mph75%30.15 "Hg10 mi
Weather by CustomWeather, © 2017

See weather overviewHow to use our weather pages